Regional Weather Roundup
Issued by NWS

Home | Current Version | Previous Version | Text Only | Print | Product List | Glossary Off
Versions: 1 2 3 4 5 6 7 8 9 10 11 12 13 14 15 16 17 18 19 20 21 22 23 24 25 26 27 28 29 30 31 32 33 34 35 36 37 38 39 40 41 42 43 44 45 46 47 48 49 50

000
ASUS45 KABQ 030501
RWRNM
WEATHER ROUNDUP FOR NEW MEXICO
NATIONAL WEATHER SERVICE ALBUQUERQUE NM
1100 PM MDT SAT MAY 02 2015

NOTE: "FAIR" MEANS FEW OR NO CLOUDS BELOW 12,000 FEET AGL WITH NO
       SIGNIFICANT WEATHER OR OBSTRUCTIONS TO VISION.

      THIS PRODUCT IS RELEASED AS TWO VERSIONS.  ONE VERSION NEAR
      THE TOP OF THE HOUR CONTAINING PRELIMINARY DATA FROM ALBUQUERQUE
      AND OTHER STATIONS.  A FINAL VERSION WITH ADDITIONAL DATA IS
      ISSUED ABOUT 10 MINUTES AFTER THE HOUR.

NMZ501-503-504-510>518-030600-
NORTHWEST PLATEAU/NORTHCENTRAL MOUNTAINS

CITY           SKY/WX    TMP DP  RH WIND       PRES   REMARKS
FARMINGTON     MOCLDY    62  34  35 NW6       30.02R
SANTA FE       NOT AVBL
TAOS           PTCLDY    46  32  57 CALM      30.16S
ANGEL FIRE     FAIR      42  35  76 CALM      30.22R

$$
NMZ402-403-502-505>509-030600-
WESTCENTRAL MOUNTAINS/SOUTHWEST MOUNTAINS

CITY           SKY/WX    TMP DP  RH WIND       PRES   REMARKS
GALLUP         CLOUDY    50  44  80 CALM      30.12R
GRANTS         MOCLDY    51  39  62 CALM      30.14S
SILVER CITY      N/A     64  36  34 NE10G20   30.09S

$$
NMZ407-409-411-412-030600-
SOUTHERN DESERTS

CITY           SKY/WX    TMP DP  RH WIND       PRES   REMARKS
DEMING         CLOUDY    74  34  23 SW15      30.03R
HOLLOMAN AFB   CLOUDY    75  25  15 SE5       29.93R
ALAMOGORDO     MOCLDY    75  27  16 W7        29.95R
T OR C         CLOUDY    71  34  25 NW9       30.02R

$$
NMZ519>523-030600-
CENTRAL VALLEYS/CENTRAL HIGHLANDS

CITY           SKY/WX    TMP DP  RH WIND       PRES   REMARKS
ALBUQUERQUE    PTCLDY    65  35  33 E7        30.05F
DOUBLE EAGLE   MOCLDY    59  36  41 N3        30.08S
MORIARTY ARPT  FAIR      49  31  50 NE6       30.11S
CLINES CORNERS PTCLDY    56  27  32 CALM      30.14R
BELEN          FAIR      62  36  38 E5        30.06R
SOCORRO        NOT AVBL

$$
NMZ524>526-539-540-030600-
SOUTHCENTRAL MOUNTAINS

CITY           SKY/WX    TMP DP  RH WIND       PRES   REMARKS
RUIDOSO        NOT AVBL

$$
NMZ527>531-030600-
NORTHEAST HIGHLANDS/NORTHEAST PLAINS

CITY           SKY/WX    TMP DP  RH WIND       PRES   REMARKS
LAS VEGAS      PTCLDY    46  34  62 S9        30.13R
RATON          CLOUDY    53  34  48 E10       30.05S
CLAYTON        CLOUDY    63  39  41 SW9       29.99R

$$
NMZ532>537-030600-
EASTCENTRAL PLAINS

CITY           SKY/WX    TMP DP  RH WIND       PRES   REMARKS
TUCUMCARI      CLOUDY    73  37  27 SW10      29.94F
CANNON AFB     MOCLDY    66  39  36 E6        29.99F
CLOVIS AIRPORT MOCLDY    64  39  39 NE9       30.01

$$
NMZ028-029-538-030600-
SOUTHEAST PLAINS

CITY           SKY/WX    TMP DP  RH WIND       PRES   REMARKS
ROSWELL        CLEAR     65  35  33 S12       29.92R
ARTESIA        CLEAR     66  37  34 S13       29.94R
CARLSBAD       CLEAR     69  43  38 S10       29.92R
HOBBS          CLEAR     66  43  42 S13       29.97S


$$


USA.gov is the U.S. government's official web portal to all federal, state and local government web resources and services.